Location: ?
(35.4064°N, 139.3593°E)
Time: 13:16:17
(UTC+00:00)

ARIANE 6 FM1 Upper Stage - Pass Details

Date: 15 December 2025
Orbit: 522 x 610 km, 62.0° (Epoch: 13 January)

Event Time Altitude Azimuth Distance (km) Brightness Sun altitude
Rises 19:15:31 0° 174° (S) 2,715 6.3 -29.5°
Reaches altitude 10° 19:18:24 10° 153° (SSE) 1,807 5.6 -28.9°
Maximum altitude 19:20:57 16° 114° (ESE) 1,438 5.5 -28.4°
Drops below altitude 10° 19:23:29 10° 74° (ENE) 1,787 6.0 -27.9°
Sets 19:26:18 0° 53° (NE) 2,669 6.7 -27.4°
